This demonstration page uses our WeatherBlox Daily Observations layout. Learn more.

Left ArrowRight Arrow

44.8408, -93.29828

Hourly Observations for September 8, 2019

Temp ( °F °C ) Dew Point ( °F °C ) Humidity (%) Winds ( mph kmh ) Pressure ( in mb ) Visibility ( mi km ) Precip ( " mm )
12:53 am 00:53 Cloudy with Light Rain 56 13.3 51 10.6 84 84 NE 9 15 30.10 1019 10 16 0.01 0.25
1:53 am 01:53 Cloudy with Light Rain 56 13.3 51 10.6 84 84 E 8 13 30.13 1020 10 16 0.01 0.25
2:53 am 02:53 Cloudy 55 12.8 51 10.6 87 87 ENE 10 17 30.11 1020 10 16 0.01 0.25
3:53 am 03:53 Cloudy 55 12.8 51 10.6 87 87 ENE 6 9 30.11 1020 10 16 0.01 0.25
4:53 am 04:53 Cloudy 54 12.2 51 10.6 90 90 E 8 13 30.10 1019 10 16 0.00 0.00
5:53 am 05:53 Cloudy 54 12.2 50 10 87 87 ENE 8 13 30.11 1020 10 16 0.00 0.00
6:53 am 06:53 Cloudy 54 12.2 49 9.4 83 83 ENE 9 15 30.12 1020 10 16 0.00 0.00
7:53 am 07:53 Cloudy 54 12.2 49 9.4 83 83 E 7 11 30.13 1020 10 16 0.00 0.00
8:53 am 08:53 Cloudy 55 12.8 50 10 83 83 ENE 9 15 30.14 1021 10 16 0.00 0.00
9:53 am 09:53 Cloudy with Light Rain 56 13.3 50 10 81 81 E 8 13 30.15 1021 10 16 0.00 0.00
10:53 am 10:53 Cloudy with Light Rain 56 13.3 51 10.6 84 84 E 8 13 30.15 1021 9 14 0.01 0.25
11:53 am 11:53 Cloudy with Rain 56 13.3 52 11.1 87 87 E 8 13 30.15 1021 7 11 0.07 1.78
12:53 pm 12:53 Cloudy with Light Rain 58 14.4 53 11.7 84 84 E 10 17 30.14 1021 10 16 0.02 0.51
1:15 pm 13:15 Cloudy 58 14.4 53 11.7 84 84 E 12 19 30.14 1021 10 16 0.00 0.00
1:53 pm 13:53 Cloudy with Light Rain 58 14.4 54 12.2 87 87 ENE 10 17 30.14 1021 10 16 0.00 0.00
2:53 pm 14:53 Cloudy with Light Rain 59 15 54 12.2 83 83 E 10 17 30.13 1020 10 16 0.00 0.00
3:15 pm 15:15 Cloudy with Light Rain 59 15 55 12.8 87 87 E 12 19 30.11 1020 10 16 0.00 0.00
3:53 pm 15:53 Cloudy 60 15.6 55 12.8 84 84 E 10 17 30.12 1020 10 16 0.00 0.00
4:03 pm 16:03 Cloudy 60 15.6 54 12.2 80 80 E 12 19 30.10 1019 10 16 0.00 0.00
4:53 pm 16:53 Cloudy 61 16.1 54 12.2 78 78 E 13 20 30.11 1020 10 16 0.00 0.00
5:53 pm 17:53 Cloudy 61 16.1 54 12.2 78 78 E 13 20 30.12 1020 10 16 0.00 0.00
6:53 pm 18:53 Cloudy 60 15.6 53 11.7 78 78 E 10 17 30.13 1020 10 16 0.00 0.00
7:53 pm 19:53 Cloudy 60 15.6 53 11.7 78 78 ESE 10 17 30.13 1020 10 16 0.00 0.00
8:53 pm 20:53 Cloudy 59 15 53 11.7 81 81 ESE 13 20 30.13 1020 10 16 0.00 0.00
9:35 pm 21:35 Cloudy 59 15 53 11.7 81 81 ESE 10 17 30.12 1020 10 16 0.00 0.00
9:53 pm 21:53 Cloudy 59 15 53 11.7 81 81 E 13 20 30.13 1020 10 16 0.00 0.00
10:10 pm 22:10 Cloudy 59 15 53 11.7 81 81 E 15 24 30.11 1020 10 16 0.00 0.00
10:53 pm 22:53 Mostly Cloudy 59 15 53 11.7 81 81 SE 10 17 30.13 1020 10 16 0.00 0.00
11:33 pm 23:33 Cloudy 59 15 53 11.7 81 81 SE 12 19 30.13 1020 10 16 0.00 0.00
11:53 pm 23:53 Cloudy 59 15 53 11.7 81 81 SE 9 15 30.15 1021 10 16 0.00 0.00

Powered by AerisWeather